Overview Statistics Trail Chart Weather Telemetry Raw packets
 

This is the latest recevied weather packets stored in our database for station/object S51UL-6. If no packets are shown the sender has not sent any weather packets the latest 10 day(s).

<< 8 9 10 11 12 13 14 >>
Time Temp. Humidity Pressure Rain* Wind** Luminosity Snow
1788601233 25° C 55% 1020.8 hPa 0.51 mm - - -
1788600935 25° C 55% 1020.7 hPa 0 mm - - -
1788600635 24.44° C 54% 1020.6 hPa 0.51 mm - - -
1788600333 24.44° C 53% 1020.6 hPa 0.51 mm - - -
1788600034 24.44° C 53% 1020.8 hPa 0.51 mm - - -
1788599733 24.44° C 53% 1020.7 hPa 0.51 mm - - -
1788599434 24.44° C 52% 1020.7 hPa 0.51 mm - - -
1788599135 25° C 52% 1020.6 hPa 0.51 mm - - -
1788598834 25.56° C 54% 1020.5 hPa 0.51 mm - - -
1788598534 25.56° C 54% 1020.5 hPa 0.51 mm - - -
1788597934 25.56° C 54% 1020.5 hPa 0.51 mm - - -
1788597634 26.11° C 54% 1020.3 hPa 2.03 mm - - -
1788597334 26.11° C 55% 1020.2 hPa 1.52 mm - - -
1788596734 26.11° C 56% 1020 hPa 1.52 mm - - -
1788596134 27.22° C 57% 1019.7 hPa 1.52 mm - - -
1788595835 27.22° C 60% 1019.6 hPa 1.52 mm - - -
1788595536 27.22° C 63% 1019.3 hPa 1.52 mm - - -
1788595233 26.67° C 63% 1019.3 hPa 1.52 mm - - -
1788594933 26.67° C 64% 1019.3 hPa 1.52 mm - - -
1788594633 26.11° C 65% 1019.1 hPa 1.52 mm - - -
1788594333 26.11° C 66% 1019.1 hPa 1.52 mm - - -
1788594033 25.56° C 68% 1018.9 hPa 0 mm - - -
1788593733 25° C 69% 1018.7 hPa 0 mm - - -
1788593435 24.44° C 72% 1018.5 hPa 0 mm - - -
1788593135 23.33° C 75% 1018.5 hPa 0 mm - - -

* Rain latest hour (hover to see other rain measurements)
** Current wind speed in m/s (hover to see current wind gust speed)